ELECTRON KICK STAGE R/B, 60085

Orbit data source: Space-Track

ELECTRON KICK STAGE R/B, 60085 is space debris in SSO originally from a launch on Thu, 20 Jun 2024 UTC launched from the Rocket Lab Launch Complex (RLLC). Debris objects in space refer to the collection of defunct objects orbiting the Earth. Examples of debris include non-operational satellites, rocket bodies, and fragments generated from explosions, collisions, or faulty payload assembly.

Loading next visibility...
Identifier
60085, 2024-114G
Orbit
SSO
Country
Flag of USUS
Related business
Manufacturer
Rocket Lab
Mission
Spacecraft
Bus & Motor
KICK STAGE, CURIE
Mass
~50 kg wet, ~50 kg dry
Launch date (UTC)
2024-06-20 (2 years ago)
Launch vehicle
Unknown
Launch site
Rocket Lab Launch Complex (RLLC)
Object type
Payload
Rocket body
Debris
Shape & HBR
Trunc Cone, 0.7 m
Radar Cross Section
0.760 m², Large (>1 m²)

Expand to show TLE details & history
Last TLE update: 1 week ago

TLE from 1 week ago
0 ELECTRON KICK STAGE R/B
1 60085U 24114G   26155.11684913  .00009674  00000-0  50988-3 0  9992
2 60085  97.9379 208.4448 0065425 142.9080 217.6698 15.13936324107410
Epoch: 2026-06-04T02:48Z
TLE epoch observation values (Epoch: 2026-06-04T02:48:15.764Z)
Latitude
-0.00012°
Longitude
-86.18659°
Altitude
563.139 km
Speed
7.56 km/s
True Right ascension
13h 53m 46s
True Declination
0° 00' 00"
Sunlit
Object was in full shadow at epoch
Visualization orbit readout
Latitude
Unknown
Longitude
Unknown
Altitude
Unknown
Speed
Unknown
Apparent Right ascension
Unknown
Apparent Declination
Unknown
Sunlit
N/A
Visualization observer readout
Local Sidereal Time
13:14:43
Azimuth
Unknown
Elevation
Unknown
Doppler factor
Unknown
Orbital elements
Apogee altitude
566.346 km
Perigee altitude
476.068 km
Semi-major axis
6,899.344 km
Eccentricity
0.00654
Inclination
97.9379°
RAAN
208.4448°
Arg. of periapsis
142.908°
True anomaly
217.21459°
Mean anomaly
217.6698°
Eccentric anomaly
217.4419°
Mean motion
3.78732 °/min
Orbital period
95.05 mins
BSTAR
0.00050988
Loading maneuver chart data...
Computing Atmospheric mass density...
Loading historical data...
Loading historical data...
Loading historical data...
Loading historical data...
Loading historical data...
Loading historical data...
Loading historical data...

Documentation

Showing up to 5 results
|